| time (UTC) | temp F | wind direction | speed MPH | gust MPH | rain 1hr in | rain 24hr in | rain mn in | humidity % | barometer mb |
| 20260510114213 | 79 | 68 | 8.0 | 21.0 | 0.00 | 0.00 | 0.00 | 70 | 1021.5 |
| 20260510113708 | 79 | 77 | 13.0 | 19.0 | 0.00 | 0.00 | 0.00 | 69 | 1021.5 |
| 20260510113205 | 80 | 54 | 10.0 | 17.0 | 0.00 | 0.00 | 0.00 | 68 | 1021.4 |
| 20260510112701 | 80 | 96 | 15.0 | 18.0 | 0.00 | 0.00 | 0.00 | 67 | 1021.3 |
| 20260510112158 | 80 | 110 | 15.0 | 21.0 | 0.00 | 0.00 | 0.00 | 68 | 1021.4 |
| 20260510111654 | 80 | 101 | 12.0 | 16.0 | 0.00 | 0.00 | 0.00 | 68 | 1021.4 |
| 20260510111151 | 80 | 85 | 13.0 | 18.0 | 0.00 | 0.00 | 0.00 | 70 | 1021.2 |
| 20260510110645 | 80 | 89 | 10.0 | 19.0 | 0.00 | 0.00 | 0.00 | 70 | 1021.2 |
| 20260510110143 | 78 | 135 | 3.0 | 14.0 | 0.00 | 0.00 | 0.00 | 72 | 1021.0 |
| 20260510105638 | 78 | 96 | 13.0 | 24.0 | 0.00 | 0.00 | 0.00 | 73 | 1021.2 |
| 20260510105138 | 78 | 61 | 7.0 | 16.0 | 0.00 | 0.00 | 0.00 | 73 | 1021.2 |
| 20260510104635 | 78 | 87 | 11.0 | 17.0 | 0.00 | 0.00 | 0.00 | 73 | 1021.0 |
| 20260510104132 | 78 | 44 | 10.0 | 19.0 | 0.00 | 0.00 | 0.00 | 73 | 1021.0 |
| 20260510103629 | 78 | 47 | 6.0 | 13.0 | 0.00 | 0.00 | 0.00 | 74 | 1020.9 |
| 20260510103125 | 78 | 66 | 13.0 | 16.0 | 0.00 | 0.00 | 0.00 | 74 | 1020.8 |
| 20260510102620 | 77 | 55 | 7.0 | 18.0 | 0.00 | 0.00 | 0.00 | 74 | 1020.6 |
| 20260510102116 | 77 | 86 | 11.0 | 17.0 | 0.00 | 0.00 | 0.00 | 74 | 1020.6 |
| 20260510101614 | 77 | 114 | 11.0 | 17.0 | 0.00 | 0.00 | 0.00 | 74 | 1020.6 |
| 20260510101112 | 77 | 81 | 6.0 | 17.0 | 0.00 | 0.00 | 0.00 | 75 | 1020.7 |
| 20260510100609 | 77 | 145 | 2.0 | 13.0 | 0.00 | 0.00 | 0.00 | 75 | 1020.5 |
| 20260510100106 | 77 | 84 | 4.0 | 15.0 | 0.00 | 0.00 | 0.00 | 75 | 1020.4 |
| 20260510095602 | 76 | 151 | 6.0 | 14.0 | 0.00 | 0.00 | 0.00 | 75 | 1020.2 |
| 20260510095101 | 76 | 84 | 6.0 | 16.0 | 0.00 | 0.00 | 0.00 | 75 | 1020.2 |
| 20260510094601 | 76 | 78 | 15.0 | 21.0 | 0.00 | 0.00 | 0.00 | 75 | 1020.3 |
| 20260510094056 | 76 | 77 | 11.0 | 17.0 | 0.00 | 0.00 | 0.00 | 75 | 1020.3 |
| 20260510093553 | 77 | 122 | 10.0 | 21.0 | 0.00 | 0.00 | 0.00 | 75 | 1020.3 |
| 20260510093050 | 76 | 60 | 14.0 | 19.0 | 0.00 | 0.00 | 0.00 | 75 | 1020.2 |
| 20260510092547 | 76 | 111 | 5.0 | 22.0 | 0.00 | 0.00 | 0.00 | 75 | 1020.2 |
| 20260510092046 | 76 | 104 | 9.0 | 21.0 | 0.00 | 0.00 | 0.00 | 74 | 1020.0 |
| 20260510091543 | 76 | 83 | 9.0 | 14.0 | 0.00 | 0.00 | 0.00 | 73 | 1019.8 |
| 20260510091039 | 76 | 40 | 10.0 | 16.0 | 0.00 | 0.00 | 0.00 | 73 | 1020.1 |
| 20260510090536 | 76 | 81 | 14.0 | 17.0 | 0.00 | 0.00 | 0.00 | 73 | 1019.9 |
| 20260510090033 | 77 | 106 | 8.0 | 16.0 | 0.00 | 0.00 | 0.00 | 73 | 1019.9 |
| 20260510085532 | 77 | 146 | 9.0 | 17.0 | 0.00 | 0.00 | 0.00 | 74 | 1019.9 |
| 20260510085028 | 76 | 73 | 12.0 | 19.0 | 0.00 | 0.00 | 0.00 | 74 | 1019.9 |
| 20260510084525 | 76 | 69 | 9.0 | 16.0 | 0.00 | 0.00 | 0.00 | 75 | 1019.8 |
| 20260510084022 | 76 | 64 | 9.0 | 14.0 | 0.00 | 0.00 | 0.00 | 74 | 1019.8 |
| 20260510083519 | 76 | 107 | 8.0 | 13.0 | 0.00 | 0.00 | 0.00 | 74 | 1019.7 |
| 20260510083015 | 76 | 158 | 8.0 | 14.0 | 0.00 | 0.00 | 0.00 | 74 | 1019.7 |
| 20260510082512 | 76 | 96 | 13.0 | 16.0 | 0.00 | 0.00 | 0.00 | 74 | 1019.7 |
| 20260510082012 | 76 | 70 | 6.0 | 10.0 | 0.00 | 0.00 | 0.00 | 75 | 1019.8 |
| 20260510081508 | 76 | 77 | 7.0 | 13.0 | 0.00 | 0.00 | 0.00 | 75 | 1019.7 |
| 20260510081004 | 76 | 156 | 2.0 | 10.0 | 0.00 | 0.00 | 0.00 | 75 | 1019.7 |
| 20260510080502 | 76 | 83 | 7.0 | 14.0 | 0.00 | 0.00 | 0.00 | 75 | 1019.8 |
| 20260510075959 | 76 | 67 | 9.0 | 16.0 | 0.00 | 0.00 | 0.00 | 76 | 1019.7 |
| 20260510075457 | 76 | 107 | 11.0 | 15.0 | 0.00 | 0.00 | 0.00 | 76 | 1019.7 |
| 20260510074954 | 76 | 66 | 8.0 | 15.0 | 0.00 | 0.00 | 0.00 | 75 | 1019.7 |
| 20260510074451 | 76 | 62 | 12.0 | 15.0 | 0.00 | 0.00 | 0.00 | 75 | 1019.5 |
| 20260510073947 | 76 | 83 | 16.0 | 19.0 | 0.00 | 0.00 | 0.00 | 75 | 1019.5 |
| 20260510073443 | 76 | 60 | 15.0 | 23.0 | 0.00 | 0.00 | 0.00 | 75 | 1019.6 |
| 20260510072939 | 76 | 77 | 12.0 | 19.0 | 0.00 | 0.00 | 0.00 | 76 | 1019.5 |
| 20260510072437 | 76 | 37 | 11.0 | 16.0 | 0.00 | 0.00 | 0.00 | 77 | 1019.6 |
| 20260510071932 | 76 | 73 | 6.0 | 14.0 | 0.00 | 0.00 | 0.00 | 76 | 1019.7 |
| 20260510071429 | 76 | 113 | 6.0 | 14.0 | 0.00 | 0.00 | 0.00 | 76 | 1019.5 |
| 20260510070927 | 76 | 98 | 9.0 | 17.0 | 0.00 | 0.00 | 0.00 | 76 | 1019.4 |
| 20260510070424 | 76 | 71 | 9.0 | 18.0 | 0.00 | 0.00 | 0.00 | 76 | 1019.6 |
| 20260510065919 | 76 | 130 | 10.0 | 13.0 | 0.00 | 0.00 | 0.00 | 75 | 1019.4 |
| 20260510065416 | 76 | 80 | 12.0 | 17.0 | 0.00 | 0.00 | 0.00 | 75 | 1019.5 |
| 20260510064912 | 76 | 77 | 8.0 | 14.0 | 0.00 | 0.00 | 0.00 | 75 | 1019.6 |
| 20260510064410 | 76 | 140 | 7.0 | 14.0 | 0.00 | 0.00 | 0.00 | 75 | 1019.8 |
| 20260510063906 | 76 | 83 | 8.0 | 11.0 | 0.00 | 0.00 | 0.00 | 74 | 1019.6 |
| 20260510063402 | 76 | 94 | 11.0 | 14.0 | 0.00 | 0.00 | 0.00 | 74 | 1019.5 |
| 20260510062900 | 77 | 99 | 6.0 | 16.0 | 0.00 | 0.00 | 0.00 | 74 | 1019.6 |
| 20260510062355 | 76 | 78 | 3.0 | 13.0 | 0.00 | 0.00 | 0.00 | 74 | 1019.7 |
| 20260510061851 | 77 | 58 | 10.0 | 14.0 | 0.00 | 0.00 | 0.00 | 73 | 1019.9 |
| 20260510061348 | 77 | 64 | 11.0 | 18.0 | 0.00 | 0.00 | 0.00 | 73 | 1019.8 |
| 20260510060843 | 77 | 115 | 8.0 | 17.0 | 0.00 | 0.00 | 0.00 | 73 | 1019.8 |
| 20260510060341 | 77 | 78 | 6.0 | 17.0 | 0.00 | 0.00 | 0.00 | 72 | 1019.9 |
| 20260510055837 | 77 | 77 | 12.0 | 15.0 | 0.00 | 0.00 | 0.00 | 73 | 1020.1 |
| 20260510055337 | 77 | 69 | 6.0 | 17.0 | 0.00 | 0.00 | 0.00 | 72 | 1019.9 |
| 20260510054836 | 77 | 91 | 9.0 | 13.0 | 0.00 | 0.00 | 0.00 | 72 | 1020.0 |
| 20260510054332 | 77 | 98 | 8.0 | 16.0 | 0.00 | 0.00 | 0.00 | 72 | 1020.0 |
| 20260510053827 | 77 | 15 | 9.0 | 16.0 | 0.00 | 0.00 | 0.00 | 72 | 1020.3 |
| 20260510053323 | 77 | 73 | 10.0 | 18.0 | 0.00 | 0.00 | 0.00 | 72 | 1020.1 |
| 20260510052819 | 77 | 44 | 13.0 | 16.0 | 0.00 | 0.00 | 0.00 | 73 | 1020.2 |
| 20260510052315 | 76 | 80 | 12.0 | 18.0 | 0.00 | 0.00 | 0.00 | 73 | 1020.1 |
| 20260510051811 | 76 | 63 | 7.0 | 19.0 | 0.00 | 0.00 | 0.00 | 74 | 1020.0 |
| 20260510051308 | 76 | 61 | 8.0 | 18.0 | 0.00 | 0.00 | 0.00 | 74 | 1020.1 |
| 20260510050806 | 76 | 85 | 9.0 | 15.0 | 0.00 | 0.00 | 0.00 | 75 | 1020.0 |
| 20260510050302 | 76 | 68 | 9.0 | 11.0 | 0.00 | 0.00 | 0.00 | 75 | 1020.1 |
| 20260510045759 | 76 | 93 | 7.0 | 14.0 | 0.00 | 0.00 | 0.00 | 75 | 1020.2 |
| 20260510045255 | 75 | 70 | 11.0 | 14.0 | 0.00 | 0.00 | 0.00 | 75 | 1020.2 |
| 20260510044753 | 76 | 95 | 8.0 | 13.0 | 0.00 | 0.00 | 0.00 | 75 | 1020.5 |
| 20260510044250 | 76 | 64 | 11.0 | 14.0 | 0.00 | 0.00 | 0.00 | 75 | 1020.3 |
| 20260510043746 | 76 | 49 | 12.0 | 15.0 | 0.00 | 0.00 | 0.00 | 75 | 1020.4 |
| 20260510043242 | 76 | 91 | 8.0 | 15.0 | 0.00 | 0.00 | 0.00 | 75 | 1020.4 |
| 20260510042740 | 76 | 78 | 9.0 | 17.0 | 0.00 | 0.00 | 0.00 | 75 | 1020.4 |
| 20260510042235 | 76 | 84 | 9.0 | 13.0 | 0.00 | 0.00 | 0.00 | 75 | 1020.3 |
| 20260510041732 | 76 | 108 | 4.0 | 10.0 | 0.00 | 0.00 | 0.00 | 74 | 1020.4 |
| 20260510041230 | 76 | 72 | 10.0 | 17.0 | 0.00 | 0.00 | 0.00 | 75 | 1020.2 |
| 20260510040726 | 77 | 81 | 12.0 | 16.0 | 0.00 | 0.00 | 0.00 | 74 | 1020.6 |
| 20260510040223 | 77 | 63 | 12.0 | 16.0 | 0.00 | 0.00 | 0.00 | 74 | 1020.4 |
| 20260510035719 | 77 | 87 | 10.0 | 14.0 | 0.00 | 0.00 | 0.00 | 74 | 1020.6 |
| 20260510035215 | 77 | 89 | 12.0 | 19.0 | 0.00 | 0.00 | 0.00 | 74 | 1020.7 |
| 20260510034711 | 77 | 107 | 11.0 | 19.0 | 0.00 | 0.00 | 0.00 | 74 | 1020.8 |
| 20260510034209 | 77 | 81 | 9.0 | 15.0 | 0.00 | 0.00 | 0.00 | 75 | 1020.6 |
| 20260510033705 | 77 | 70 | 8.0 | 10.0 | 0.00 | 0.00 | 0.00 | 75 | 1020.9 |
| 20260510033203 | 77 | 169 | 7.0 | 11.0 | 0.00 | 0.00 | 0.00 | 75 | 1020.6 |
| 20260510032659 | 77 | 89 | 4.0 | 8.0 | 0.00 | 0.00 | 0.00 | 74 | 1020.8 |
| 20260510032154 | 77 | 76 | 9.0 | 13.0 | 0.00 | 0.00 | 0.00 | 74 | 1020.9 |
| 20260510031649 | 77 | 88 | 6.0 | 11.0 | 0.00 | 0.00 | 0.00 | 74 | 1020.9 |
| 20260510031147 | 77 | 71 | 9.0 | 11.0 | 0.00 | 0.00 | 0.00 | 73 | 1020.9 |
| 20260510030646 | 77 | 51 | 8.0 | 10.0 | 0.00 | 0.00 | 0.00 | 73 | 1021.0 |
| 20260510030144 | 77 | 69 | 4.0 | 15.0 | 0.00 | 0.00 | 0.00 | 73 | 1020.9 |
| 20260510025641 | 77 | 119 | 8.0 | 14.0 | 0.00 | 0.00 | 0.00 | 72 | 1021.0 |
| 20260510025138 | 77 | 82 | 12.0 | 16.0 | 0.00 | 0.00 | 0.00 | 72 | 1021.2 |
| 20260510024635 | 77 | 105 | 4.0 | 13.0 | 0.00 | 0.00 | 0.00 | 72 | 1021.2 |
| 20260510024132 | 77 | 118 | 7.0 | 13.0 | 0.00 | 0.00 | 0.00 | 72 | 1021.1 |
| 20260510023627 | 77 | 156 | 3.0 | 8.0 | 0.00 | 0.00 | 0.00 | 71 | 1021.3 |
| 20260510023125 | 77 | 81 | 10.0 | 13.0 | 0.00 | 0.00 | 0.00 | 71 | 1021.2 |
| 20260510022625 | 78 | 107 | 5.0 | 10.0 | 0.00 | 0.00 | 0.00 | 71 | 1021.1 |
| 20260510022121 | 78 | 352 | 7.0 | 16.0 | 0.00 | 0.00 | 0.00 | 71 | 1021.0 |
| 20260510021616 | 77 | 55 | 12.0 | 14.0 | 0.00 | 0.00 | 0.00 | 71 | 1020.8 |
| 20260510021114 | 77 | 58 | 9.0 | 14.0 | 0.00 | 0.00 | 0.00 | 71 | 1021.0 |
| 20260510020608 | 77 | 104 | 8.0 | 16.0 | 0.00 | 0.00 | 0.00 | 71 | 1021.0 |
| 20260510020104 | 78 | 66 | 9.0 | 16.0 | 0.00 | 0.00 | 0.00 | 70 | 1020.9 |
| 20260510015600 | 78 | 81 | 11.0 | 18.0 | 0.00 | 0.00 | 0.00 | 70 | 1020.8 |
| 20260510015057 | 78 | 94 | 9.0 | 14.0 | 0.00 | 0.00 | 0.00 | 70 | 1020.9 |
| 20260510014552 | 78 | 103 | 8.0 | 14.0 | 0.00 | 0.00 | 0.00 | 70 | 1020.7 |
| 20260510014050 | 78 | 106 | 7.0 | 9.0 | 0.00 | 0.00 | 0.00 | 70 | 1020.7 |
| 20260510013544 | 78 | 78 | 8.0 | 14.0 | 0.00 | 0.00 | 0.00 | 70 | 1020.6 |
| 20260510013040 | 78 | 61 | 10.0 | 14.0 | 0.00 | 0.00 | 0.00 | 72 | 1020.6 |
| 20260510012534 | 78 | 32 | 9.0 | 13.0 | 0.00 | 0.00 | 0.00 | 74 | 1020.6 |
| 20260510012031 | 78 | 75 | 4.0 | 11.0 | 0.00 | 0.00 | 0.00 | 76 | 1020.7 |
| 20260510011530 | 78 | 85 | 2.0 | 9.0 | 0.00 | 0.00 | 0.00 | 77 | 1020.6 |
| 20260510011026 | 78 | 96 | 4.0 | 13.0 | 0.00 | 0.00 | 0.00 | 78 | 1020.7 |
| 20260510010523 | 78 | 134 | 5.0 | 16.0 | 0.00 | 0.00 | 0.00 | 79 | 1020.6 |
| 20260510010020 | 78 | 70 | 6.0 | 8.0 | 0.00 | 0.00 | 0.00 | 79 | 1020.4 |
| 20260510005516 | 78 | 154 | 8.0 | 15.0 | 0.00 | 0.00 | 0.00 | 79 | 1020.6 |
| 20260510005014 | 78 | 62 | 9.0 | 13.0 | 0.00 | 0.00 | 0.00 | 78 | 1020.7 |
| 20260510004511 | 78 | 60 | 6.0 | 13.0 | 0.00 | 0.00 | 0.00 | 78 | 1020.4 |
| 20260510004009 | 78 | 76 | 7.0 | 11.0 | 0.00 | 0.00 | 0.00 | 77 | 1020.4 |
| 20260510003505 | 78 | 56 | 3.0 | 11.0 | 0.00 | 0.00 | 0.00 | 77 | 1020.4 |
| 20260510003001 | 78 | 43 | 4.0 | 13.0 | 0.00 | 0.00 | 0.00 | 77 | 1020.3 |
| 20260510002457 | 78 | 88 | 6.0 | 11.0 | 0.00 | 0.00 | 0.00 | 78 | 1020.3 |
| 20260510001953 | 78 | 79 | 5.0 | 10.0 | 0.00 | 0.00 | 0.00 | 78 | 1020.1 |
| 20260510001451 | 78 | 68 | 6.0 | 17.0 | 0.00 | 0.00 | 0.00 | 79 | 1020.2 |
| 20260510000949 | 78 | 80 | 9.0 | 16.0 | 0.00 | 0.00 | 0.00 | 79 | 1020.3 |
| 20260510000444 | 78 | 78 | 7.0 | 11.0 | 0.00 | 0.00 | 0.00 | 79 | 1020.0 |
| 20260509235941 | 78 | 128 | 3.0 | 18.0 | 0.00 | 0.00 | 0.00 | 79 | 1020.0 |
| 20260509235438 | 78 | 46 | 8.0 | 11.0 | 0.00 | 0.00 | 0.00 | 78 | 1020.0 |
| 20260509234934 | 78 | 60 | 10.0 | 16.0 | 0.00 | 0.00 | 0.00 | 78 | 1019.9 |
| 20260509234431 | 78 | 126 | 7.0 | 13.0 | 0.00 | 0.00 | 0.00 | 77 | 1019.8 |
| 20260509233929 | 78 | 96 | 10.0 | 15.0 | 0.00 | 0.00 | 0.00 | 77 | 1019.8 |
| 20260509233426 | 79 | 70 | 7.0 | 9.0 | 0.00 | 0.00 | 0.00 | 77 | 1019.8 |
| 20260509232922 | 79 | 95 | 7.0 | 13.0 | 0.00 | 0.00 | 0.00 | 76 | 1019.7 |
| 20260509232420 | 79 | 158 | 7.0 | 17.0 | 0.00 | 0.00 | 0.00 | 76 | 1019.6 |
| 20260509231915 | 79 | 87 | 11.0 | 15.0 | 0.00 | 0.00 | 0.00 | 76 | 1019.5 |
| 20260509231413 | 79 | 87 | 15.0 | 19.0 | 0.00 | 0.00 | 0.00 | 76 | 1019.4 |
| 20260509230911 | 79 | 76 | 12.0 | 16.0 | 0.00 | 0.00 | 0.00 | 76 | 1019.3 |
| 20260509230407 | 79 | 75 | 12.0 | 19.0 | 0.00 | 0.00 | 0.00 | 76 | 1019.3 |
| 20260509225903 | 79 | 105 | 11.0 | 17.0 | 0.00 | 0.00 | 0.00 | 76 | 1019.3 |
| 20260509225400 | 79 | 56 | 9.0 | 17.0 | 0.00 | 0.00 | 0.00 | 76 | 1019.3 |
| 20260509224856 | 79 | 152 | 13.0 | 18.0 | 0.00 | 0.00 | 0.00 | 76 | 1019.1 |
| 20260509224351 | 79 | 105 | 6.0 | 21.0 | 0.00 | 0.00 | 0.00 | 75 | 1019.2 |
| 20260509223849 | 79 | 75 | 14.0 | 16.0 | 0.00 | 0.00 | 0.00 | 75 | 1018.9 |
| 20260509223345 | 79 | 54 | 8.0 | 16.0 | 0.00 | 0.00 | 0.00 | 75 | 1019.0 |
| 20260509222843 | 79 | 88 | 12.0 | 19.0 | 0.00 | 0.00 | 0.00 | 75 | 1018.9 |
| 20260509222342 | 80 | 92 | 9.0 | 18.0 | 0.00 | 0.00 | 0.00 | 75 | 1019.3 |
| 20260509221838 | 80 | 103 | 11.0 | 18.0 | 0.00 | 0.00 | 0.00 | 75 | 1019.2 |
| 20260509221337 | 80 | 111 | 11.0 | 19.0 | 0.00 | 0.00 | 0.00 | 74 | 1019.2 |
| 20260509220836 | 80 | 67 | 9.0 | 16.0 | 0.00 | 0.00 | 0.00 | 73 | 1019.2 |
| 20260509220333 | 80 | 113 | 12.0 | 15.0 | 0.00 | 0.00 | 0.00 | 72 | 1019.0 |
| 20260509215828 | 80 | 94 | 13.0 | 16.0 | 0.00 | 0.00 | 0.00 | 70 | 1019.0 |
| 20260509215325 | 81 | 81 | 13.0 | 19.0 | 0.00 | 0.00 | 0.00 | 68 | 1019.1 |
| 20260509214822 | 81 | 74 | 13.0 | 18.0 | 0.00 | 0.00 | 0.00 | 68 | 1018.8 |
| 20260509214319 | 81 | 75 | 14.0 | 17.0 | 0.00 | 0.00 | 0.00 | 70 | 1018.9 |
| 20260509213817 | 81 | 93 | 12.0 | 14.0 | 0.00 | 0.00 | 0.00 | 71 | 1018.9 |
| 20260509213312 | 81 | 81 | 8.0 | 21.0 | 0.00 | 0.00 | 0.00 | 72 | 1018.8 |
| 20260509212810 | 81 | 153 | 6.0 | 14.0 | 0.00 | 0.00 | 0.00 | 72 | 1018.9 |
| 20260509212307 | 82 | 131 | 9.0 | 14.0 | 0.00 | 0.00 | 0.00 | 69 | 1018.9 |
| 20260509211802 | 82 | 106 | 9.0 | 16.0 | 0.00 | 0.00 | 0.00 | 68 | 1018.8 |
| 20260509211259 | 82 | 110 | 11.0 | 19.0 | 0.00 | 0.00 | 0.00 | 66 | 1018.9 |
| 20260509210755 | 82 | 140 | 12.0 | 16.0 | 0.00 | 0.00 | 0.00 | 68 | 1018.7 |
| 20260509210253 | 82 | 124 | 12.0 | 19.0 | 0.00 | 0.00 | 0.00 | 69 | 1018.8 |
| 20260509205753 | 82 | 127 | 17.0 | 21.0 | 0.00 | 0.00 | 0.00 | 71 | 1018.9 |
| 20260509205247 | 82 | 108 | 15.0 | 23.0 | 0.00 | 0.00 | 0.00 | 71 | 1018.9 |
| 20260509204743 | 82 | 128 | 13.0 | 18.0 | 0.00 | 0.00 | 0.00 | 71 | 1018.7 |
| 20260509204240 | 82 | 114 | 11.0 | 16.0 | 0.00 | 0.00 | 0.00 | 70 | 1018.7 |
| 20260509203736 | 82 | 82 | 15.0 | 16.0 | 0.00 | 0.00 | 0.00 | 69 | 1018.7 |
| 20260509203234 | 82 | 157 | 11.0 | 18.0 | 0.00 | 0.00 | 0.00 | 72 | 1018.8 |
| 20260509202730 | 82 | 152 | 16.0 | 22.0 | 0.00 | 0.00 | 0.00 | 70 | 1018.6 |
| 20260509202226 | 83 | 104 | 19.0 | 25.0 | 0.00 | 0.00 | 0.00 | 70 | 1018.9 |
| 20260509201721 | 83 | 116 | 15.0 | 19.0 | 0.00 | 0.00 | 0.00 | 68 | 1018.8 |
| 20260509201218 | 83 | 288 | 11.0 | 15.0 | 0.00 | 0.00 | 0.00 | 69 | 1018.9 |
| 20260509200714 | 83 | 107 | 14.0 | 23.0 | 0.00 | 0.00 | 0.00 | 67 | 1018.9 |
| 20260509200209 | 83 | 117 | 15.0 | 19.0 | 0.00 | 0.00 | 0.00 | 69 | 1018.9 |
| 20260509195705 | 84 | 85 | 13.0 | 23.0 | 0.00 | 0.00 | 0.00 | 68 | 1019.0 |
| 20260509195201 | 83 | 111 | 12.0 | 18.0 | 0.00 | 0.00 | 0.00 | 68 | 1018.9 |
| 20260509194700 | 83 | 93 | 16.0 | 23.0 | 0.00 | 0.00 | 0.00 | 68 | 1018.7 |
| 20260509194157 | 84 | 156 | 14.0 | 19.0 | 0.00 | 0.00 | 0.00 | 66 | 1019.0 |
| 20260509193654 | 83 | 144 | 13.0 | 18.0 | 0.00 | 0.00 | 0.00 | 67 | 1018.8 |
| 20260509193149 | 83 | 92 | 13.0 | 19.0 | 0.00 | 0.00 | 0.00 | 67 | 1019.0 |
| 20260509192646 | 84 | 82 | 17.0 | 22.0 | 0.00 | 0.00 | 0.00 | 65 | 1019.1 |
| 20260509192141 | 84 | 94 | 12.0 | 19.0 | 0.00 | 0.00 | 0.00 | 66 | 1019.0 |
| 20260509191635 | 84 | 99 | 18.0 | 25.0 | 0.00 | 0.00 | 0.00 | 67 | 1019.3 |
| 20260509191132 | 84 | 129 | 14.0 | 19.0 | 0.00 | 0.00 | 0.00 | 69 | 1019.1 |
| 20260509190628 | 84 | 119 | 13.0 | 23.0 | 0.00 | 0.00 | 0.00 | 68 | 1019.1 |
| 20260509190126 | 84 | 145 | 9.0 | 22.0 | 0.00 | 0.00 | 0.00 | 66 | 1018.8 |
| 20260509185623 | 85 | 113 | 14.0 | 19.0 | 0.00 | 0.00 | 0.00 | 65 | 1019.1 |
| 20260509185119 | 85 | 88 | 13.0 | 18.0 | 0.00 | 0.00 | 0.00 | 67 | 1019.1 |
| 20260509184618 | 85 | 111 | 11.0 | 17.0 | 0.00 | 0.00 | 0.00 | 63 | 1019.2 |
| 20260509184114 | 85 | 103 | 13.0 | 23.0 | 0.00 | 0.00 | 0.00 | 63 | 1019.1 |
| 20260509183609 | 85 | 62 | 19.0 | 23.0 | 0.00 | 0.00 | 0.00 | 63 | 1019.2 |
| 20260509183105 | 85 | 118 | 11.0 | 18.0 | 0.00 | 0.00 | 0.00 | 66 | 1019.3 |
| 20260509182602 | 86 | 212 | 14.0 | 23.0 | 0.00 | 0.00 | 0.00 | 66 | 1019.4 |
| 20260509182059 | 85 | 118 | 13.0 | 19.0 | 0.00 | 0.00 | 0.00 | 63 | 1019.5 |
| 20260509181557 | 85 | 79 | 17.0 | 22.0 | 0.00 | 0.00 | 0.00 | 62 | 1019.6 |
| 20260509181054 | 85 | 326 | 13.0 | 21.0 | 0.00 | 0.00 | 0.00 | 62 | 1019.8 |
| 20260509180549 | 86 | 129 | 14.0 | 18.0 | 0.00 | 0.00 | 0.00 | 60 | 1019.7 |
| 20260509180047 | 86 | 96 | 17.0 | 21.0 | 0.00 | 0.00 | 0.00 | 59 | 1019.7 |
| 20260509175542 | 86 | 95 | 15.0 | 21.0 | 0.00 | 0.00 | 0.00 | 60 | 1019.8 |
| 20260509175040 | 86 | 146 | 16.0 | 21.0 | 0.00 | 0.00 | 0.00 | 61 | 1019.8 |
| 20260509174536 | 85 | 139 | 15.0 | 21.0 | 0.00 | 0.00 | 0.00 | 62 | 1019.8 |
| 20260509174031 | 86 | 142 | 17.0 | 25.0 | 0.00 | 0.00 | 0.00 | 58 | 1020.1 |
| 20260509173526 | 86 | 95 | 18.0 | 23.0 | 0.00 | 0.00 | 0.00 | 60 | 1020.1 |
| 20260509173022 | 87 | 108 | 15.0 | 23.0 | 0.00 | 0.00 | 0.00 | 58 | 1020.1 |
| 20260509172520 | 86 | 87 | 18.0 | 22.0 | 0.00 | 0.00 | 0.00 | 58 | 1020.3 |
| 20260509172015 | 86 | 99 | 15.0 | 23.0 | 0.00 | 0.00 | 0.00 | 59 | 1020.4 |
| 20260509171512 | 86 | 115 | 16.0 | 22.0 | 0.00 | 0.00 | 0.00 | 59 | 1020.2 |
| 20260509171008 | 86 | 85 | 11.0 | 22.0 | 0.00 | 0.00 | 0.00 | 63 | 1020.3 |
| 20260509170504 | 86 | 91 | 18.0 | 30.0 | 0.00 | 0.00 | 0.00 | 61 | 1020.1 |
| 20260509165959 | 86 | 107 | 14.0 | 23.0 | 0.00 | 0.00 | 0.00 | 62 | 1020.5 |
| 20260509165458 | 86 | 103 | 11.0 | 19.0 | 0.00 | 0.00 | 0.00 | 62 | 1020.5 |
| 20260509164955 | 86 | 117 | 14.0 | 24.0 | 0.00 | 0.00 | 0.00 | 62 | 1020.5 |
| 20260509164450 | 86 | 85 | 13.0 | 24.0 | 0.00 | 0.00 | 0.00 | 62 | 1020.6 |
| 20260509163946 | 86 | 120 | 16.0 | 19.0 | 0.00 | 0.00 | 0.00 | 61 | 1020.5 |
| 20260509163444 | 87 | 203 | 14.0 | 21.0 | 0.00 | 0.00 | 0.00 | 62 | 1020.7 |
| 20260509162943 | 86 | 109 | 12.0 | 24.0 | 0.00 | 0.00 | 0.00 | 63 | 1020.7 |
| 20260509162442 | 86 | 112 | 13.0 | 19.0 | 0.00 | 0.00 | 0.00 | 61 | 1020.7 |
| 20260509161938 | 87 | 116 | 15.0 | 19.0 | 0.00 | 0.00 | 0.00 | 62 | 1020.8 |
| 20260509161434 | 87 | 101 | 16.0 | 23.0 | 0.00 | 0.00 | 0.00 | 64 | 1020.8 |
| 20260509160930 | 86 | 88 | 14.0 | 21.0 | 0.00 | 0.00 | 0.00 | 65 | 1020.8 |
| 20260509160426 | 87 | 100 | 13.0 | 23.0 | 0.00 | 0.00 | 0.00 | 63 | 1021.0 |
| 20260509155921 | 87 | 115 | 10.0 | 17.0 | 0.00 | 0.00 | 0.00 | 65 | 1020.8 |
| 20260509155418 | 87 | 147 | 13.0 | 24.0 | 0.00 | 0.00 | 0.00 | 62 | 1021.1 |
| 20260509154914 | 87 | 103 | 11.0 | 19.0 | 0.00 | 0.00 | 0.00 | 62 | 1021.1 |
| 20260509154411 | 86 | 132 | 14.0 | 21.0 | 0.00 | 0.00 | 0.00 | 64 | 1021.1 |
| 20260509153907 | 86 | 218 | 14.0 | 19.0 | 0.00 | 0.00 | 0.00 | 63 | 1021.2 |
| 20260509153405 | 87 | 150 | 12.0 | 17.0 | 0.00 | 0.00 | 0.00 | 63 | 1021.0 |
| 20260509152902 | 86 | 107 | 9.0 | 19.0 | 0.00 | 0.00 | 0.00 | 65 | 1021.1 |
| 20260509152357 | 86 | 165 | 12.0 | 17.0 | 0.00 | 0.00 | 0.00 | 65 | 1021.3 |
| 20260509151855 | 86 | 138 | 12.0 | 18.0 | 0.00 | 0.00 | 0.00 | 64 | 1021.2 |
| 20260509151350 | 87 | 102 | 12.0 | 22.0 | 0.00 | 0.00 | 0.00 | 63 | 1021.2 |
| 20260509150849 | 86 | 111 | 17.0 | 21.0 | 0.00 | 0.00 | 0.00 | 64 | 1021.1 |
| 20260509150347 | 87 | 128 | 13.0 | 18.0 | 0.00 | 0.00 | 0.00 | 64 | 1021.4 |
| 20260509145844 | 86 | 92 | 11.0 | 22.0 | 0.00 | 0.00 | 0.00 | 64 | 1021.3 |
| 20260509145344 | 87 | 129 | 8.0 | 21.0 | 0.00 | 0.00 | 0.00 | 63 | 1021.6 |
| 20260509144841 | 87 | 127 | 11.0 | 17.0 | 0.00 | 0.00 | 0.00 | 62 | 1021.4 |
| 20260509144338 | 87 | 177 | 8.0 | 18.0 | 0.00 | 0.00 | 0.00 | 64 | 1021.5 |
| 20260509143835 | 86 | 113 | 10.0 | 16.0 | 0.00 | 0.00 | 0.00 | 64 | 1021.3 |
| 20260509143332 | 87 | 90 | 11.0 | 22.0 | 0.00 | 0.00 | 0.00 | 60 | 1021.2 |
| 20260509142828 | 86 | 143 | 12.0 | 19.0 | 0.00 | 0.00 | 0.00 | 62 | 1021.4 |
| 20260509142324 | 87 | 182 | 11.0 | 19.0 | 0.00 | 0.00 | 0.00 | 61 | 1021.3 |
| 20260509141820 | 87 | 111 | 7.0 | 16.0 | 0.00 | 0.00 | 0.00 | 61 | 1021.3 |
| 20260509141318 | 86 | 161 | 8.0 | 13.0 | 0.00 | 0.00 | 0.00 | 61 | 1021.3 |
| 20260509140814 | 86 | 106 | 10.0 | 16.0 | 0.00 | 0.00 | 0.00 | 62 | 1021.4 |
| 20260509140311 | 86 | 73 | 17.0 | 21.0 | 0.00 | 0.00 | 0.00 | 61 | 1021.2 |
| 20260509135809 | 86 | 56 | 15.0 | 21.0 | 0.00 | 0.00 | 0.00 | 61 | 1021.2 |
| 20260509135306 | 86 | 140 | 10.0 | 22.0 | 0.00 | 0.00 | 0.00 | 61 | 1021.0 |
| 20260509134803 | 86 | 99 | 14.0 | 17.0 | 0.00 | 0.00 | 0.00 | 60 | 1021.2 |
| 20260509134301 | 86 | 96 | 13.0 | 17.0 | 0.00 | 0.00 | 0.00 | 60 | 1021.2 |
| 20260509133757 | 86 | 201 | 8.0 | 18.0 | 0.00 | 0.00 | 0.00 | 59 | 1021.1 |
| 20260509133254 | 86 | 71 | 7.0 | 15.0 | 0.00 | 0.00 | 0.00 | 59 | 1021.2 |
| 20260509132753 | 86 | 67 | 13.0 | 16.0 | 0.00 | 0.00 | 0.00 | 58 | 1021.2 |
| 20260509132251 | 86 | 149 | 11.0 | 18.0 | 0.00 | 0.00 | 0.00 | 58 | 1021.2 |
| 20260509131747 | 85 | 53 | 10.0 | 17.0 | 0.00 | 0.00 | 0.00 | 58 | 1021.1 |
| 20260509131244 | 86 | 145 | 12.0 | 16.0 | 0.00 | 0.00 | 0.00 | 58 | 1021.0 |
| 20260509130740 | 85 | 105 | 14.0 | 18.0 | 0.00 | 0.00 | 0.00 | 58 | 1021.0 |
| 20260509130236 | 85 | 89 | 8.0 | 18.0 | 0.00 | 0.00 | 0.00 | 61 | 1020.9 |
| 20260509125733 | 84 | 183 | 9.0 | 15.0 | 0.00 | 0.00 | 0.00 | 62 | 1021.0 |
| 20260509125230 | 83 | 68 | 11.0 | 14.0 | 0.00 | 0.00 | 0.00 | 62 | 1021.0 |
| 20260509124726 | 83 | 144 | 11.0 | 16.0 | 0.00 | 0.00 | 0.00 | 63 | 1020.9 |
| 20260509124223 | 83 | 91 | 14.0 | 19.0 | 0.00 | 0.00 | 0.00 | 62 | 1020.9 |
| 20260509123721 | 83 | 109 | 9.0 | 14.0 | 0.00 | 0.00 | 0.00 | 63 | 1020.9 |
| 20260509123218 | 83 | 67 | 6.0 | 18.0 | 0.00 | 0.00 | 0.00 | 63 | 1020.9 |
| 20260509122713 | 82 | 82 | 12.0 | 16.0 | 0.00 | 0.00 | 0.00 | 63 | 1020.7 |
| 20260509122211 | 82 | 104 | 10.0 | 11.0 | 0.00 | 0.00 | 0.00 | 65 | 1020.8 |
| 20260509121707 | 81 | 143 | 13.0 | 18.0 | 0.00 | 0.00 | 0.00 | 66 | 1020.7 |
| 20260509121205 | 82 | 81 | 14.0 | 19.0 | 0.00 | 0.00 | 0.00 | 64 | 1020.6 |
| 20260509120703 | 82 | 129 | 13.0 | 16.0 | 0.00 | 0.00 | 0.00 | 66 | 1020.4 |
| 20260509120201 | 81 | 108 | 8.0 | 13.0 | 0.00 | 0.00 | 0.00 | 67 | 1020.4 |
| 20260509115658 | 80 | 88 | 6.0 | 14.0 | 0.00 | 0.00 | 0.00 | 68 | 1020.4 |
| 20260509115155 | 80 | 114 | 6.0 | 10.0 | 0.00 | 0.00 | 0.00 | 69 | 1020.3 |
| 20260509114653 | 80 | 62 | 11.0 | 16.0 | 0.00 | 0.00 | 0.00 | 68 | 1020.4 |